DW4915 Mazarete ES current weather conditions

sailwx.info

Wind from 261

Air temperature 67.2° C
Dewpoint 67.2° C

Last reported at 2017-Jun-22 16:01 UTC.
Time now 2017-Jun-22 16:27 UTC

Location: N 40°58' W 002°11'.
View on Google Maps.

See reports from other nearby stations

  
Tides and Currents Weather Stations Pressure Air Temp Water Temp Dewpoint Dewpoint Depression Visibility Wind Speed Wind Dir Waves Ship Positions
date/time (UTC)wind fromknots sea level pressurealtimeterstation pressurevisibilityair tempwater tempwave heightnotes
2017-Jun-22 16:06 260 67.2
2017-Jun-22 16:01 261 67.2
2017-Jun-22 15:56 261 67.2
2017-Jun-22 15:51 261 67.2
2017-Jun-22 15:46 243 67.2
2017-Jun-22 15:41 240 67.2
2017-Jun-22 15:36 273 66.7
2017-Jun-22 15:31 273 66.7
2017-Jun-22 15:26 273 66.1
2017-Jun-22 15:21 273 66.1
2017-Jun-22 15:16 273 66.7
2017-Jun-22 15:11 273 67.2
2017-Jun-22 15:06 273 67.2
2017-Jun-22 15:01 273 67.8
2017-Jun-22 14:56 254 67.8
2017-Jun-22 14:51 254 67.2
2017-Jun-22 14:46 254 67.2
2017-Jun-22 14:41 253 67.2
2017-Jun-22 14:36 246 66.7
2017-Jun-22 14:31 251 66.7
2017-Jun-22 14:26 262 66.1
2017-Jun-22 14:21 271 66.1
2017-Jun-22 14:16 272 66.1
2017-Jun-22 14:11 271 66.7
2017-Jun-22 14:06 248 66.7
2017-Jun-22 14:01 303 66.1
2017-Jun-22 13:56 302 65.0
2017-Jun-22 13:51 303 65.0
2017-Jun-22 13:46 303 65.0
2017-Jun-22 13:41 302 65.0
2017-Jun-22 13:36 303 65.6
2017-Jun-22 13:31 258 66.1
2017-Jun-22 13:26 319 66.7
2017-Jun-22 13:21 315 67.2
2017-Jun-22 13:16 252 67.2
2017-Jun-22 13:11 253 66.7
2017-Jun-22 13:06 263 66.7
2017-Jun-22 13:01 262 66.1
2017-Jun-22 12:56 262 65.6
2017-Jun-22 12:51 261 65.0
2017-Jun-22 12:46 261 64.4
2017-Jun-22 12:41 262 63.9
2017-Jun-22 12:36 266 63.9
2017-Jun-22 12:31 266 63.9
2017-Jun-22 12:26 268 63.9
2017-Jun-22 12:21 266 63.3
2017-Jun-22 12:16 265 63.9
2017-Jun-22 12:11 266 64.4
2017-Jun-22 12:06 265 64.4
2017-Jun-22 12:01 265 65.0
2017-Jun-22 11:56 266 65.0
2017-Jun-22 11:51 260 65.6
2017-Jun-22 11:46 305 65.0
2017-Jun-22 11:41 306 65.0
2017-Jun-22 11:36 285 64.4
2017-Jun-22 11:31 284 64.4
2017-Jun-22 11:26 284 64.4
2017-Jun-22 11:21 285 63.9
2017-Jun-22 11:16 285 64.4
2017-Jun-22 11:11 194 64.4
2017-Jun-22 11:06 195 64.4
2017-Jun-22 10:56 258 64.4
2017-Jun-22 10:51 258 63.9
2017-Jun-22 10:46 259 63.9
2017-Jun-22 10:41 258 63.9
2017-Jun-22 10:36 258 63.3
2017-Jun-22 10:31 258 63.3
2017-Jun-22 10:26 258 62.8
2017-Jun-22 10:21 258 62.8
2017-Jun-22 10:16 258 62.8
2017-Jun-22 10:11 258 62.2
2017-Jun-22 10:06 258 62.2
2017-Jun-22 10:01 258 61.7
2017-Jun-22 09:56 258 61.7
2017-Jun-22 09:51 258 61.1
2017-Jun-22 09:46 258 60.6
2017-Jun-22 09:41 258 60.6
2017-Jun-22 09:36 258 60.6
2017-Jun-22 09:31 226 60.6
2017-Jun-22 09:26 227 60.6
2017-Jun-22 09:21 211 60.0
2017-Jun-22 09:16 211 60.0
2017-Jun-22 09:11 211 59.4
2017-Jun-22 09:06 216 58.9
2017-Jun-22 09:01 216 58.9
2017-Jun-22 08:56 229 58.9
2017-Jun-22 08:51 139 58.9
2017-Jun-22 08:46 139 58.3
2017-Jun-22 08:41 139 58.3
2017-Jun-22 08:36 139 57.8
2017-Jun-22 08:31 140 57.8
2017-Jun-22 08:26 139 57.2
2017-Jun-22 08:21 139 57.2
2017-Jun-22 08:16 140 56.7
2017-Jun-22 08:11 140 56.7
2017-Jun-22 08:06 139 56.1
2017-Jun-22 08:01 139 56.1
2017-Jun-22 07:56 139 56.1
2017-Jun-22 07:51 138 56.1
2017-Jun-22 07:46 139 56.1
2017-Jun-22 07:41 139 55.6
2017-Jun-22 07:36 138 55.0
2017-Jun-22 07:31 138 54.4
2017-Jun-22 07:26 137 54.4
2017-Jun-22 07:21 138 53.9
2017-Jun-22 07:16 139 53.3
2017-Jun-22 07:11 139 52.2
2017-Jun-22 07:06 140 51.7
2017-Jun-22 07:01 139 51.1
2017-Jun-22 06:56 140 50.0
2017-Jun-22 06:51 138 48.9
2017-Jun-22 06:46 138 48.3
2017-Jun-22 06:41 139 47.8
2017-Jun-22 06:36 139 46.7
2017-Jun-22 06:31 139 46.1
2017-Jun-22 06:26 139 45.6
2017-Jun-22 06:21 139 44.4
2017-Jun-22 06:16 138 43.9
2017-Jun-22 06:11 139 43.3
2017-Jun-22 06:06 140 42.8
2017-Jun-22 06:01 139 41.7
2017-Jun-22 05:56 139 41.1
2017-Jun-22 05:51 137 41.1
2017-Jun-22 05:46 139 40.6
2017-Jun-22 05:41 139 40.0
2017-Jun-22 05:36 139 40.0
2017-Jun-22 05:31 139 39.4
2017-Jun-22 05:26 139 39.4
2017-Jun-22 05:21 138 38.9
2017-Jun-22 05:16 139 38.9
2017-Jun-22 05:11 138 38.9
2017-Jun-22 05:06 138 38.9
2017-Jun-22 05:01 139 38.9
2017-Jun-22 04:56 139 38.9
2017-Jun-22 04:51 139 38.9
2017-Jun-22 04:46 140 38.3
2017-Jun-22 04:41 137 38.9
2017-Jun-22 04:36 139 38.9
2017-Jun-22 04:31 140 38.9
2017-Jun-22 04:26 140 38.9
2017-Jun-22 04:21 138 38.9
2017-Jun-22 04:16 139 38.9
2017-Jun-22 04:11 139 38.9
2017-Jun-22 04:06 138 38.9
2017-Jun-22 04:01 139 38.9
2017-Jun-22 03:56 139 38.9
2017-Jun-22 03:51 139 38.9
2017-Jun-22 03:46 139 38.9
2017-Jun-22 03:41 139 38.9
2017-Jun-22 03:36 139 39.4
2017-Jun-22 03:31 139 39.4
2017-Jun-22 03:26 138 39.4
2017-Jun-22 03:21 140 39.4
2017-Jun-22 03:16 139 39.4
2017-Jun-22 03:11 139 39.4
2017-Jun-22 03:06 139 39.4
2017-Jun-22 03:01 139 39.4
2017-Jun-22 02:56 139 39.4
2017-Jun-22 02:51 138 40.0
2017-Jun-22 02:46 139 40.0
2017-Jun-22 02:41 139 40.0
2017-Jun-22 02:36 138 40.0
2017-Jun-22 02:31 139 40.0
2017-Jun-22 02:26 139 40.0
2017-Jun-22 02:21 139 40.0
2017-Jun-22 02:16 139 40.0
2017-Jun-22 02:11 139 40.6
2017-Jun-22 02:06 139 40.6
2017-Jun-22 02:01 139 40.6
2017-Jun-22 01:56 139 40.6
2017-Jun-22 01:51 139 41.1
2017-Jun-22 01:46 140 41.1
2017-Jun-22 01:41 139 41.1
2017-Jun-22 01:36 139 41.1
2017-Jun-22 01:31 139 41.1
2017-Jun-22 01:26 138 41.1
2017-Jun-22 01:21 139 41.7
2017-Jun-22 01:16 140 41.7
2017-Jun-22 01:11 139 41.7
2017-Jun-22 01:06 139 41.7
2017-Jun-22 01:01 139 42.2
2017-Jun-22 00:56 139 42.2
2017-Jun-22 00:51 140 42.8
2017-Jun-22 00:46 139 42.8
2017-Jun-22 00:41 139 42.8
2017-Jun-22 00:36 138 43.3
2017-Jun-22 00:31 139 43.3
2017-Jun-22 00:26 139 43.3
2017-Jun-22 00:21 139 43.3
2017-Jun-22 00:16 137 42.8
2017-Jun-22 00:11 139 42.8
2017-Jun-22 00:06 140 42.8
2017-Jun-22 00:01 139 42.8
2017-Jun-21 23:56 138 42.8
2017-Jun-21 23:51 139 42.8
2017-Jun-21 23:46 139 43.3
2017-Jun-21 23:41 140 43.3
2017-Jun-21 23:36 139 43.3
2017-Jun-21 23:31 140 43.9
2017-Jun-21 23:26 139 43.9
2017-Jun-21 23:21 139 43.9
2017-Jun-21 23:16 138 43.9
2017-Jun-21 23:11 139 44.4
2017-Jun-21 23:06 139 44.4
2017-Jun-21 23:01 139 44.4
2017-Jun-21 22:56 140 45.0
2017-Jun-21 22:51 139 45.0
2017-Jun-21 22:46 139 45.6
2017-Jun-21 22:41 137 45.6
2017-Jun-21 22:36 139 46.1
2017-Jun-21 22:31 139 46.7
2017-Jun-21 22:26 138 47.2
2017-Jun-21 22:21 139 47.2
2017-Jun-21 22:16 140 47.8
2017-Jun-21 22:11 139 48.3
2017-Jun-21 22:06 138 48.9
2017-Jun-21 22:01 139 49.4
2017-Jun-21 21:56 139 50.0
2017-Jun-21 21:51 139 50.0
2017-Jun-21 21:46 139 50.6
2017-Jun-21 21:41 139 51.1
2017-Jun-21 21:36 139 52.2
2017-Jun-21 21:31 139 52.8
2017-Jun-21 21:26 139 53.3
2017-Jun-21 21:21 139 53.9
2017-Jun-21 21:11 106 55.0
2017-Jun-21 21:06 109 55.6
2017-Jun-21 21:01 100 55.0
2017-Jun-21 20:56 102 54.4
2017-Jun-21 20:51 088 53.9
2017-Jun-21 20:46 067 53.9
2017-Jun-21 20:41 071 55.0
2017-Jun-21 20:36 015 55.0
2017-Jun-21 20:31 025 54.4
2017-Jun-21 20:26 015 53.9
2017-Jun-21 20:21 336 54.4
2017-Jun-21 20:16 331 54.4
2017-Jun-21 20:11 345 54.4
2017-Jun-21 20:06 337 55.6
2017-Jun-21 20:01 331 55.6
2017-Jun-21 19:56 329 55.0
2017-Jun-21 19:51 330 55.0
2017-Jun-21 19:46 029 55.0
2017-Jun-21 19:41 090 55.0
2017-Jun-21 19:36 089 55.0
2017-Jun-21 19:31 089 55.0
2017-Jun-21 19:26 088 55.6
2017-Jun-21 19:21 089 55.6
2017-Jun-21 19:16 089 55.6
2017-Jun-21 19:11 089 56.1
2017-Jun-21 19:06 089 56.1
2017-Jun-21 19:01 090 56.7
2017-Jun-21 18:56 090 57.2
2017-Jun-21 18:51 089 57.2
2017-Jun-21 18:46 089 57.8
2017-Jun-21 18:41 089 58.3
2017-Jun-21 18:36 089 58.9
2017-Jun-21 18:31 089 60.0
2017-Jun-21 18:26 089 60.6
2017-Jun-21 18:21 088 61.1
2017-Jun-21 18:16 089 61.7
2017-Jun-21 18:11 090 62.2
2017-Jun-21 18:06 089 62.8
2017-Jun-21 18:01 089 62.8
2017-Jun-21 17:56 089 62.2
2017-Jun-21 17:51 089 61.7
2017-Jun-21 17:46 088 61.1
2017-Jun-21 17:36 089 61.1
2017-Jun-21 17:31 089 61.1
2017-Jun-21 17:26 090 61.1
2017-Jun-21 17:21 090 61.1
2017-Jun-21 17:16 088 61.1
2017-Jun-21 17:11 089 61.7
2017-Jun-21 17:06 088 61.7
2017-Jun-21 17:01 089 62.2
2017-Jun-21 16:56 089 62.2
2017-Jun-21 16:51 089 62.2
2017-Jun-21 16:46 089 62.8
2017-Jun-21 16:41 089 63.3
2017-Jun-21 16:36 089 63.9
2017-Jun-21 16:31 089 63.9
2017-Jun-21 16:26 089 63.3
2017-Jun-21 16:21 090 63.3
2017-Jun-21 16:16 089 63.9
2017-Jun-21 16:11 088 64.4
2017-Jun-21 16:06 089 65.0
2017-Jun-21 16:01 089 65.0
2017-Jun-21 15:56 089 65.0
2017-Jun-21 15:51 090 65.6
2017-Jun-21 15:46 129 65.0
2017-Jun-21 15:41 129 65.0
2017-Jun-21 15:36 129 65.0
2017-Jun-21 15:31 144 65.0
2017-Jun-21 15:26 143 64.4
2017-Jun-21 15:21 144 64.4
2017-Jun-21 15:16 143 63.9
2017-Jun-21 15:11 144 63.3
2017-Jun-21 15:06 144 63.3
2017-Jun-21 15:01 144 63.3
2017-Jun-21 14:56 142 63.9
2017-Jun-21 14:51 144 64.4
2017-Jun-21 14:46 144 64.4
2017-Jun-21 14:41 143 63.9
2017-Jun-21 14:36 143 63.9
2017-Jun-21 14:31 147 63.3
2017-Jun-21 14:26 098 63.3
2017-Jun-21 14:21 097 62.2
2017-Jun-21 14:16 093 61.7
2017-Jun-21 14:11 092 60.6
2017-Jun-21 14:06 092 60.6
2017-Jun-21 14:01 092 60.6
2017-Jun-21 13:56 092 61.1
2017-Jun-21 13:51 092 61.1
2017-Jun-21 13:41 070 62.2
2017-Jun-21 13:36 317 62.8
2017-Jun-21 13:31 178 63.3
2017-Jun-21 13:26 106 63.3
2017-Jun-21 13:21 077 62.8
2017-Jun-21 13:16 075 63.3
2017-Jun-21 13:11 063 63.9
2017-Jun-21 13:06 065 63.9
2017-Jun-21 13:01 077 63.3
2017-Jun-21 12:56 076 63.3
2017-Jun-21 12:51 076 62.8
2017-Jun-21 12:46 076 62.8
2017-Jun-21 12:41 077 62.8
2017-Jun-21 12:36 076 62.8
2017-Jun-21 12:31 076 62.2
2017-Jun-21 12:26 092 62.2
2017-Jun-21 12:21 088 61.7
2017-Jun-21 12:16 089 61.7
2017-Jun-21 12:11 088 62.2
2017-Jun-21 12:06 087 62.2
2017-Jun-21 12:01 115 62.2
2017-Jun-21 11:56 119 62.2
2017-Jun-21 11:51 127 62.2
2017-Jun-21 11:46 127 61.7
2017-Jun-21 11:41 128 61.7
2017-Jun-21 11:36 131 61.7
2017-Jun-21 11:31 108 61.7
2017-Jun-21 11:26 105 61.1
2017-Jun-21 11:21 106 61.1
2017-Jun-21 11:16 108 60.6
2017-Jun-21 11:11 114 60.6
2017-Jun-21 11:06 094 60.6
2017-Jun-21 11:01 292 60.0
2017-Jun-21 10:56 296 60.0
2017-Jun-21 10:51 162 60.6
2017-Jun-21 10:46 162 60.6
2017-Jun-21 10:41 162 60.6
2017-Jun-21 10:36 162 60.6
2017-Jun-21 10:31 162 60.6
2017-Jun-21 10:26 162 60.6
2017-Jun-21 10:21 162 60.0
2017-Jun-21 10:16 162 60.0
2017-Jun-21 10:11 162 60.0
2017-Jun-21 10:06 162 59.4
2017-Jun-21 10:01 192 58.9
2017-Jun-21 09:56 192 58.9
2017-Jun-21 09:51 192 58.3
2017-Jun-21 09:46 192 58.3
2017-Jun-21 09:41 192 57.8
2017-Jun-21 09:36 192 57.2
2017-Jun-21 09:31 194 57.2
2017-Jun-21 09:26 193 57.2
2017-Jun-21 09:21 200 57.2
2017-Jun-21 09:16 207 56.7
2017-Jun-21 09:11 211 56.7
2017-Jun-21 09:06 207 56.1
2017-Jun-21 09:01 207 55.6
2017-Jun-21 08:56 211 55.6
2017-Jun-21 08:51 205 55.0
2017-Jun-21 08:46 207 55.0
2017-Jun-21 08:41 207 54.4
2017-Jun-21 08:36 216 54.4
2017-Jun-21 08:31 211 53.9
2017-Jun-21 08:26 207 53.9
2017-Jun-21 08:21 211 53.9
2017-Jun-21 08:16 207 53.9
2017-Jun-21 08:11 207 53.3
2017-Jun-21 08:06 191 53.3
2017-Jun-21 08:01 192 52.8
2017-Jun-21 07:56 192 52.8
2017-Jun-21 07:51 192 52.8
2017-Jun-21 07:41 192 52.2
2017-Jun-21 07:36 191 51.7
2017-Jun-21 07:31 192 51.7
2017-Jun-21 07:26 191 51.1
2017-Jun-21 07:21 191 50.6
2017-Jun-21 07:16 190 50.6
2017-Jun-21 07:11 192 50.0
2017-Jun-21 07:06 191 48.9
2017-Jun-21 07:01 192 48.3
2017-Jun-21 06:56 191 47.2
2017-Jun-21 06:51 192 46.7
2017-Jun-21 06:46 192 45.6
2017-Jun-21 06:41 191 45.0
2017-Jun-21 06:36 191 44.4
2017-Jun-20 16:56 044 47.8
2017-Jun-20 16:51 027 47.8
2017-Jun-20 16:46 026 47.8
2017-Jun-20 16:41 027 47.8
2017-Jun-20 16:36 039 47.8
2017-Jun-20 16:31 019 48.3
2017-Jun-20 16:26 356 47.8
2017-Jun-20 16:21 357 47.2
2017-Jun-20 16:16 038 47.2